Wetbulb
71.23 70.86 70.79 70.33 70.22 70.50 70.71 71.59 72.89 72.72 72.49 70.40 69.24 69.05 67.58 66.36 65.78 66.63 66.25 65.43 65.30 64.71
71.47 71.40 70.88 70.80 70.71 70.61 71.65 72.15 72.15 72.78 72.10 70.07 69.06 68.45 67.23 66.24 65.60 66.25 65.70 65.70 65.61 65.00
71.43 71.67 71.62 71.09 70.27 70.63 71.21 72.21 71.71 72.14 72.09 69.87 68.73 68.31 67.21 66.38 66.50 66.33 65.21 64.82 65.20 64.95
71.48 71.65 71.87 71.15 71.12 70.78 71.02 71.48 71.38 71.59 71.33 70.13 68.43 67.83 67.20 66.65 66.34 65.99 66.13 65.61 64.64 64.82
71.60 71.75 71.35 71.25 71.72 71.48 70.62 70.91 71.07 71.27 70.94 70.13 68.90 68.15 67.49 66.63 66.61 65.89 65.48 65.75 65.04 64.86
71.32 71.30 71.27 71.54 72.07 71.80 70.99 70.52 70.32 70.78 70.37 70.04 69.18 67.38 68.32 67.75 67.22 66.69 66.44 66.06 65.63 65.62
70.83 71.06 71.50 71.95 72.31 72.31 71.77 70.43 70.05 70.08 70.60 70.23 69.65 68.71 67.73 67.91 67.50 67.28 66.96 66.79 66.17 65.85
70.82 71.16 71.38 71.35 71.70 72.38 72.56 71.56 70.38 70.20 70.05 70.33 69.71 69.15 68.44 67.83 67.63 67.15 66.99 67.16 66.86 66.52
71.05 71.25 71.28 71.49 71.32 71.25 72.00 72.33 71.61 70.05 70.11 69.62 69.61 66.02 65.13 67.97 67.71 67.55 67.10 66.58 66.75 67.39
70.85 71.01 71.30 71.84 71.85 71.22 70.84 71.74 71.88 71.18 70.48 69.91 70.13 63.19 63.47 65.68 68.91 68.08 67.51 67.47 67.33 66.62
70.93 70.93 71.52 71.62 71.81 71.89 71.74 71.31 71.41 71.04 71.39 70.78 70.63 62.25 61.79 65.04 69.38 68.66 68.17 67.81 67.40 67.46
71.60 71.13 71.40 71.53 71.97 72.40 72.27 71.94 71.59 71.91 71.18 70.79 71.06 60.98 60.59 63.20 68.94 68.12 67.65 67.62 67.64 67.49
72.09 71.80 71.40 71.69 72.08 72.98 73.23 72.69 72.56 71.87 71.72 68.81 71.14 60.48 58.83 62.50 68.69 67.74 67.49 67.92 67.60 62.85
72.57 72.46 72.44 72.31 72.64 72.61 72.95 73.21 72.99 72.48 72.48 71.30 70.56 68.44 57.24 58.39 68.65 67.94 67.29 67.20 66.72 66.93
MSLP
1011.48 1012.05 1012.53 1013.03 1013.42 1013.97 1014.40 1014.67 1014.91 1015.33 1015.62 1016.25 1016.63 1017.06 1017.71 1018.24 1018.60 1018.93 1019.24 1019.47 1019.78 1020.08
1010.62 1011.24 1011.82 1012.30 1012.71 1013.19 1013.71 1014.11 1014.47 1014.92 1015.30 1015.75 1016.18 1016.65 1017.33 1017.87 1018.28 1018.60 1018.89 1019.10 1019.43 1019.76
1009.53 1010.17 1010.77 1011.35 1011.95 1012.46 1013.00 1013.50 1013.91 1014.47 1014.87 1015.31 1015.78 1016.28 1016.86 1017.46 1017.90 1018.35 1018.59 1018.84 1019.19 1019.50
1008.62 1009.43 1010.06 1010.54 1010.91 1011.51 1012.21 1012.75 1013.30 1013.82 1014.33 1014.81 1015.31 1015.83 1016.37 1016.90 1017.37 1017.84 1018.20 1018.53 1018.80 1019.06
1007.44 1008.27 1009.04 1009.56 1010.05 1010.77 1011.32 1011.96 1012.51 1013.07 1013.61 1014.08 1014.55 1015.08 1015.55 1016.14 1016.63 1017.23 1017.76 1018.05 1018.46 1018.54
1006.45 1007.26 1007.93 1008.43 1009.02 1009.76 1010.39 1010.96 1011.64 1012.18 1012.67 1013.17 1013.65 1014.19 1014.61 1015.14 1015.81 1016.31 1016.76 1017.21 1017.63 1017.87
1005.02 1005.59 1006.21 1007.01 1007.86 1008.56 1009.16 1009.91 1010.47 1010.94 1011.53 1012.11 1012.68 1013.21 1013.72 1014.32 1014.92 1015.41 1015.80 1016.19 1016.62 1017.03
1003.89 1004.57 1005.25 1005.99 1006.67 1007.40 1008.03 1008.50 1009.20 1009.93 1010.53 1011.10 1011.67 1012.15 1012.77 1013.38 1013.96 1014.42 1014.80 1015.27 1015.68 1016.13
1002.87 1003.60 1004.19 1004.87 1005.52 1006.27 1006.76 1007.38 1008.12 1008.71 1009.41 1010.17 1010.55 1010.93 1011.68 1012.45 1012.99 1013.40 1013.87 1014.34 1014.76 1015.32
1001.33 1002.13 1002.77 1003.60 1004.32 1004.79 1005.39 1006.24 1006.84 1007.57 1008.36 1008.86 1009.42 1010.01 1010.75 1011.43 1011.88 1012.32 1012.84 1013.28 1013.74 1014.35
1000.12 1000.68 1001.77 1002.70 1003.11 1003.53 1004.23 1004.85 1005.44 1006.06 1006.69 1007.57 1008.10 1008.88 1009.53 1010.18 1010.78 1011.22 1011.60 1011.98 1012.42 1012.86
999.01 999.65 1000.46 1001.17 1001.53 1002.25 1003.25 1003.73 1003.97 1004.58 1005.53 1006.04 1006.65 1007.40 1008.20 1009.28 1009.80 1010.22 1010.56 1011.02 1011.59 1011.98
997.64 998.43 999.11 999.52 1000.14 1000.92 1001.84 1002.73 1003.64 1003.92 1004.18 1004.83 1005.57 1006.19 1006.92 1007.95 1008.53 1009.43 1010.31 1010.85 1011.40 1011.91
996.60 996.99 997.32 998.16 999.66 1000.46 1001.08 1001.59 1002.28 1002.79 1003.37 1003.68 1004.28 1004.82 1005.39 1006.73 1007.73 1008.55 1009.27 1009.87 1010.68 1011.12
Wind_Speed
16 10 10 10 8 7 7 7 8 9 8 8 8 6 6 4 4 5 4 6 4 3
15 14 12 11 10 8 8 7 8 10 10 9 9 8 8 5 6 5 5 5 5 3
17 16 14 12 12 11 9 9 9 10 10 10 9 9 9 6 4 6 4 4 6 4
16 15 14 13 13 12 11 11 11 11 11 11 11 11 9 8 8 9 7 5 7 7
17 16 16 15 15 12 13 11 12 12 12 12 12 12 13 12 10 11 9 9 8 8
18 16 17 17 16 14 13 13 12 13 14 14 14 13 14 13 12 12 12 11 11 10
20 20 19 18 16 15 15 14 15 15 15 15 14 14 14 13 13 12 12 12 12 11
18 18 17 16 16 15 16 16 15 15 14 14 14 12 15 14 13 13 13 11 12 11
17 18 18 16 17 16 16 16 15 16 16 15 12 17 18 16 14 14 13 12 11 10
19 19 19 17 18 18 18 16 18 16 16 17 17 18 20 22 13 13 13 13 11 10
19 20 17 17 18 19 17 18 16 17 18 17 15 18 22 26 17 12 13 13 13 13
19 19 18 19 21 18 16 16 18 14 16 18 16 21 23 20 16 12 13 12 12 12
19 19 20 21 20 17 15 15 11 15 16 18 17 19 22 23 12 12 9 10 10 12
19 20 22 20 15 15 15 13 15 16 14 16 19 17 25 26 13 11 10 9 8 7
Wind_Direction
201 198 202 197 193 196 195 200 193 193 186 187 187 181 172 176 180 173 184 180 179 170
198 199 198 195 197 195 191 196 187 190 188 186 188 179 176 187 188 181 184 191 182 181
198 198 196 190 198 196 193 190 180 188 189 182 185 183 180 186 177 184 192 190 182 189
197 198 195 198 201 196 191 192 184 187 190 188 187 187 186 195 186 194 191 188 188 196
197 192 191 199 204 192 194 192 188 188 192 194 193 189 192 198 196 196 196 199 192 200
196 191 197 201 201 194 194 192 188 189 193 197 197 191 196 199 196 199 200 196 198 201
196 194 196 199 198 196 197 190 191 196 197 198 196 197 198 196 197 202 204 199 203 198
200 199 197 197 198 198 197 199 194 194 201 198 199 200 198 197 199 203 206 203 206 205
194 195 199 197 196 197 200 199 193 200 201 200 206 203 192 192 200 205 206 208 209 198
192 196 200 195 196 199 201 194 203 201 199 208 210 193 187 194 201 200 201 207 202 196
193 198 196 198 204 204 200 201 199 200 202 204 209 190 191 196 204 197 197 201 196 200
196 196 194 200 205 204 201 204 206 200 199 203 206 189 193 185 203 196 195 193 195 195
196 196 199 205 206 203 200 208 204 207 202 204 206 193 188 185 197 195 189 188 195 189
198 199 202 202 201 203 204 196 199 205 201 199 205 200 186 184 186 187 187 186 182 184